DELTA 1 DEB, 12529

Orbit data source: Space-Track

DELTA 1 DEB, 12529 is space debris in LEO originally from a launch on Thu, 29 Jul 1976 UTC launched from the Air Force Western Test Range (AFWTR). Debris objects in space refer to the collection of defunct objects orbiting the Earth. Examples of debris include non-operational satellites, rocket bodies, and fragments generated from explosions, collisions, or faulty payload assembly.

Loading next visibility...
Identifier
12529, 1976-077DJ
Orbit
LEO
Country
Flag of USUS
Related business
Manufacturer
Unknown
Mission
Spacecraft
Bus & Motor
Unknown
Mass
Unknown
Launch date (UTC)
1976-07-29 (50 years ago)
Launch vehicle
Unknown
Launch site
Air Force Western Test Range (AFWTR)
Object type
Payload
Rocket body
Debris
Shape & HBR
Unknown shape, 0.4 m
Radar Cross Section
Medium (>0.1 m² and <1 m²)

Expand to show TLE details & history
Last TLE update: 6 hours ago

TLE from 6 hours ago
0 DELTA 1 DEB
1 12529U 76077DJ  26171.29081445 -.00007763  00000-0 -12176+0 0  9997
2 12529 103.5093 290.9685 0773979 143.6198 222.0036 11.24542555832311
Epoch: 2026-06-20T06:58Z
TLE epoch observation values (Epoch: 2026-06-20T06:58:46.368Z)
Latitude
-0.00003°
Longitude
-82.23224°
Altitude
2,544.635 km
Speed
6.481 km/s
True Right ascension
19h 23m 52s
True Declination
0° 00' 00"
Sunlit
Object was in full shadow at epoch
Visualization orbit readout
Latitude
Unknown
Longitude
Unknown
Altitude
Unknown
Speed
Unknown
Apparent Right ascension
Unknown
Apparent Declination
Unknown
Sunlit
N/A
Visualization observer readout
Local Sidereal Time
23:39:24
Azimuth
Unknown
Elevation
Unknown
Doppler factor
Unknown
Orbital elements
Apogee altitude
2,686.429 km
Perigee altitude
1,384.072 km
Semi-major axis
8,413.388 km
Eccentricity
0.0774
Inclination
103.5093°
RAAN
290.9685°
Arg. of periapsis
143.6198°
True anomaly
216.4761°
Mean anomaly
222.0036°
Eccentric anomaly
219.20077°
Mean motion
2.81246 °/min
Orbital period
128 mins
BSTAR
-0.12176
Loading maneuver chart data...
Computing Atmospheric mass density...
Loading historical data...
Loading historical data...
Loading historical data...
Loading historical data...
Loading historical data...
Loading historical data...
Loading historical data...

Documentation

Showing up to 5 results
|